Location: Nitra
(0.0000°N, 18.0833°E)
Time: 06:57:10
(UTC+02:00)

Hubble Space Telescope - Pass Details

Date: 10 February 2023
Orbit: 527 x 530 km, 28.5° (Epoch: 27 March)

Event Time Altitude Azimuth Distance (km) Brightness Sun altitude
Exits shadow 04:29:52 76° 358° (N) 543 0.6 -22.2°
Maximum altitude 04:30:02 78° 31° (NNE) 539 0.7 -22.2°
Drops below altitude 10° 04:34:07 10° 117° (ESE) 1,765 4.5 -21.2°
Sets 04:36:22 0° 118° (ESE) 2,657 5.8 -20.7°
